TimeCDT,TemperatureF,Dew PointF,Humidity,Sea Level PressureIn,VisibilityMPH,Wind Direction,Wind SpeedMPH,Gust SpeedMPH,PrecipitationIn,Events,Conditions,WindDirDegrees,DateUTC
12:15 AM,71.6,68.0,88,29.99,8.0,SSE,4.6,-,N/A,,Mostly Cloudy,150,2013-04-17 05:15:00
12:35 AM,71.6,66.2,83,29.99,7.0,SE,5.8,-,N/A,,Scattered Clouds,140,2013-04-17 05:35:00
12:55 AM,71.6,68.0,88,29.99,7.0,SE,5.8,-,N/A,,Partly Cloudy,140,2013-04-17 05:55:00
1:15 AM,71.6,68.0,88,29.99,7.0,SE,6.9,-,N/A,,Clear,130,2013-04-17 06:15:00
1:55 AM,71.6,68.0,88,29.98,7.0,SE,5.8,-,N/A,,Clear,140,2013-04-17 06:55:00
2:15 AM,71.6,68.0,88,29.98,7.0,SE,5.8,-,N/A,,Clear,140,2013-04-17 07:15:00
2:35 AM,71.6,68.0,88,29.98,7.0,SSE,4.6,-,N/A,,Clear,160,2013-04-17 07:35:00
2:55 AM,69.8,66.2,88,29.98,5.0,SE,4.6,-,N/A,,Clear,140,2013-04-17 07:55:00
3:15 AM,69.8,66.2,88,29.98,5.0,Calm,Calm,-,N/A,,Scattered Clouds,0,2013-04-17 08:15:00
3:35 AM,69.8,66.2,88,29.98,5.0,SSE,4.6,-,N/A,,Partly Cloudy,150,2013-04-17 08:35:00
3:55 AM,69.8,66.2,88,29.99,5.0,SE,3.5,-,N/A,,Partly Cloudy,140,2013-04-17 08:55:00
4:15 AM,69.8,66.2,88,29.99,4.0,SE,5.8,-,N/A,,Scattered Clouds,140,2013-04-17 09:15:00
4:35 AM,69.8,68.0,94,29.99,4.0,SE,6.9,-,N/A,,Scattered Clouds,130,2013-04-17 09:35:00
4:55 AM,69.8,68.0,94,29.99,4.0,SE,5.8,-,N/A,,Scattered Clouds,140,2013-04-17 09:55:00
5:15 AM,69.8,68.0,94,29.99,4.0,SSE,4.6,-,N/A,,Mostly Cloudy,150,2013-04-17 10:15:00
5:35 AM,69.8,68.0,94,29.99,3.0,SE,6.9,-,N/A,,Scattered Clouds,140,2013-04-17 10:35:00
5:55 AM,69.8,68.0,94,29.99,3.0,SE,4.6,-,N/A,,Clear,140,2013-04-17 10:55:00
6:15 AM,69.8,68.0,94,29.99,4.0,SE,5.8,-,N/A,,Scattered Clouds,140,2013-04-17 11:15:00
6:35 AM,69.8,68.0,94,29.99,3.0,SE,5.8,-,N/A,,Mostly Cloudy,130,2013-04-17 11:35:00
6:55 AM,69.8,68.0,94,30.00,3.0,SSE,5.8,-,N/A,,Overcast,150,2013-04-17 11:55:00
7:15 AM,71.6,68.0,88,30.01,3.0,SSE,5.8,-,N/A,,Overcast,160,2013-04-17 12:15:00
7:35 AM,71.6,68.0,88,30.01,3.0,SSE,6.9,-,N/A,,Overcast,150,2013-04-17 12:35:00
7:55 AM,71.6,68.0,88,30.01,3.0,SE,8.1,-,N/A,,Overcast,140,2013-04-17 12:55:00
8:15 AM,71.6,68.0,88,30.01,4.0,SE,8.1,-,N/A,,Overcast,140,2013-04-17 13:15:00
8:35 AM,71.6,68.0,88,30.01,4.0,SE,11.5,-,N/A,,Mostly Cloudy,140,2013-04-17 13:35:00
8:55 AM,73.4,68.0,83,30.01,5.0,SSE,8.1,-,N/A,,Mostly Cloudy,160,2013-04-17 13:55:00
9:15 AM,73.4,68.0,83,30.01,5.0,SSE,6.9,-,N/A,,Haze,150,2013-04-17 14:15:00
9:35 AM,75.2,68.0,78,30.01,5.0,SSE,10.4,-,N/A,,Haze,150,2013-04-17 14:35:00
9:55 AM,75.2,68.0,78,30.01,7.0,SE,10.4,-,N/A,,Overcast,140,2013-04-17 14:55:00
10:15 AM,75.2,68.0,78,30.01,6.0,SSE,9.2,-,N/A,,Haze,160,2013-04-17 15:15:00
10:35 AM,75.2,68.0,78,30.01,6.0,SSE,9.2,-,N/A,,Haze,160,2013-04-17 15:35:00
11:15 AM,80.6,68.0,65,29.99,9.0,SSE,12.7,18.4,N/A,,Partly Cloudy,150,2013-04-17 16:15:00
11:55 AM,82.4,68.0,62,29.98,8.0,South,9.2,-,N/A,,Mostly Cloudy,180,2013-04-17 16:55:00
12:15 PM,82.4,68.0,62,29.97,8.0,South,12.7,21.9,N/A,,Mostly Cloudy,170,2013-04-17 17:15:00
12:35 PM,82.4,68.0,62,29.96,8.0,South,15.0,24.2,N/A,,Mostly Cloudy,190,2013-04-17 17:35:00
12:55 PM,82.4,66.2,58,29.96,9.0,South,10.4,23.0,N/A,,Mostly Cloudy,170,2013-04-17 17:55:00
1:15 PM,84.2,66.2,55,29.94,9.0,South,11.5,17.3,N/A,,Mostly Cloudy,170,2013-04-17 18:15:00
1:35 PM,84.2,66.2,55,29.93,8.0,SSE,18.4,25.3,N/A,,Mostly Cloudy,160,2013-04-17 18:35:00
1:55 PM,82.4,66.2,58,29.92,9.0,SSE,11.5,26.5,N/A,,Mostly Cloudy,160,2013-04-17 18:55:00
2:15 PM,86.0,66.2,51,29.91,10.0,South,16.1,24.2,N/A,,Scattered Clouds,170,2013-04-17 19:15:00
2:35 PM,86.0,64.4,48,29.90,9.0,South,13.8,24.2,N/A,,Mostly Cloudy,170,2013-04-17 19:35:00
2:55 PM,86.0,66.2,51,29.89,10.0,South,13.8,21.9,N/A,,Mostly Cloudy,180,2013-04-17 19:55:00
3:15 PM,86.0,64.4,48,29.87,9.0,SSE,20.7,27.6,N/A,,Scattered Clouds,150,2013-04-17 20:15:00
3:55 PM,86.0,64.4,48,29.86,10.0,South,12.7,25.3,N/A,,Partly Cloudy,180,2013-04-17 20:55:00
4:15 PM,86.0,64.4,48,29.84,9.0,SSE,15.0,24.2,N/A,,Clear,160,2013-04-17 21:15:00
4:35 PM,84.2,64.4,51,29.84,10.0,SSE,12.7,21.9,N/A,,Partly Cloudy,150,2013-04-17 21:35:00
4:55 PM,84.2,64.4,51,29.83,10.0,SSE,15.0,19.6,N/A,,Clear,160,2013-04-17 21:55:00
5:15 PM,86.0,66.2,51,29.83,9.0,South,10.4,18.4,N/A,,Clear,180,2013-04-17 22:15:00
5:35 PM,86.0,64.4,48,29.82,10.0,SE,16.1,19.6,N/A,,Clear,140,2013-04-17 22:35:00
5:55 PM,84.2,64.4,51,29.81,10.0,SSE,13.8,20.7,N/A,,Partly Cloudy,150,2013-04-17 22:55:00
6:15 PM,86.0,64.4,48,29.80,10.0,SSE,20.7,25.3,N/A,,Mostly Cloudy,150,2013-04-17 23:15:00
6:55 PM,84.2,62.6,48,29.80,10.0,SSE,10.4,20.7,N/A,,Scattered Clouds,160,2013-04-17 23:55:00
7:15 PM,82.4,64.4,54,29.79,10.0,SSE,16.1,21.9,N/A,,Scattered Clouds,150,2013-04-18 00:15:00
7:35 PM,82.4,64.4,54,29.80,10.0,SSE,11.5,19.6,N/A,,Partly Cloudy,160,2013-04-18 00:35:00
7:55 PM,80.6,64.4,58,29.80,10.0,SSE,8.1,18.4,N/A,,Clear,160,2013-04-18 00:55:00
8:15 PM,80.6,64.4,58,29.80,10.0,SSE,10.4,-,N/A,,Partly Cloudy,150,2013-04-18 01:15:00
8:35 PM,80.6,64.4,58,29.80,10.0,SSE,11.5,16.1,N/A,,Partly Cloudy,150,2013-04-18 01:35:00
8:55 PM,78.8,66.2,65,29.79,10.0,SSE,11.5,-,N/A,,Clear,150,2013-04-18 01:55:00
9:15 PM,78.8,64.4,61,29.79,10.0,SSE,12.7,-,N/A,,Clear,160,2013-04-18 02:15:00
9:35 PM,78.8,64.4,61,29.80,10.0,SSE,10.4,17.3,N/A,,Clear,150,2013-04-18 02:35:00
9:55 PM,77.0,66.2,69,29.81,10.0,South,6.9,-,N/A,,Clear,170,2013-04-18 02:55:00
10:15 PM,77.0,66.2,69,29.81,10.0,SSE,9.2,-,N/A,,Clear,160,2013-04-18 03:15:00
10:35 PM,77.0,66.2,69,29.81,10.0,South,8.1,-,N/A,,Clear,180,2013-04-18 03:35:00
10:55 PM,77.0,66.2,69,29.80,10.0,South,9.2,-,N/A,,Clear,170,2013-04-18 03:55:00
11:15 PM,77.0,66.2,69,29.80,10.0,South,9.2,-,N/A,,Scattered Clouds,170,2013-04-18 04:15:00
11:35 PM,77.0,66.2,69,29.80,10.0,South,9.2,16.1,N/A,,Partly Cloudy,170,2013-04-18 04:35:00
11:55 PM,77.0,66.2,69,29.80,10.0,South,12.7,17.3,N/A,,Partly Cloudy,180,2013-04-18 04:55:00